EXS95WL LEMH-EGNT

Flight info

Callsign EXS95WL
Flight time N/A
Altitude 36000
Route LUNIK DCT GEANT DCT LACOU DCT TUPAR UN861 DIKRO UM184 HEMEL T420 AKUPA UY250 RIMTO
Aircraft B738/M-SDFGIJ1RWYZ/LB1

Departure

Time 2026-04-30 21:04
Airport Menorca Airport (LEMH)

Arrival

Time N/A
Airport Newcastle International Airport (EGNT)
Time Latitude Longitude Altitude Speed Heading
2026-04-30 19:59 39.86425 4.22391 285 ft 0 kts 99°
2026-04-30 20:50 39.86428 4.22372 289 ft 4 kts 99°
2026-04-30 20:50 39.86431 4.22347 286 ft 4 kts 99°
2026-04-30 20:50 39.86437 4.22319 290 ft 4 kts 139°
2026-04-30 20:50 39.86453 4.22314 293 ft 4 kts 189°
2026-04-30 20:51 39.86470 4.22318 291 ft 0 kts 189°
2026-04-30 20:53 39.86465 4.22317 287 ft 3 kts 189°
2026-04-30 20:53 39.86438 4.22311 287 ft 9 kts 189°
2026-04-30 20:53 39.86345 4.22290 287 ft 10 kts 188°
2026-04-30 20:54 39.86266 4.22274 287 ft 7 kts 189°
2026-04-30 20:54 39.86220 4.22265 287 ft 7 kts 189°
2026-04-30 20:54 39.86184 4.22231 288 ft 7 kts 251°
2026-04-30 20:55 39.86190 4.22108 293 ft 7 kts 251°
2026-04-30 20:55 39.86152 4.22080 293 ft 7 kts 188°
2026-04-30 20:55 39.86106 4.22072 294 ft 7 kts 188°
2026-04-30 20:56 39.85963 4.22042 295 ft 15 kts 189°
2026-04-30 20:56 39.85850 4.22019 294 ft 17 kts 189°
2026-04-30 20:56 39.85585 4.21965 286 ft 22 kts 189°
2026-04-30 20:57 39.85439 4.21935 282 ft 21 kts 189°
2026-04-30 20:57 39.85298 4.21906 280 ft 20 kts 189°
2026-04-30 20:57 39.85234 4.21893 280 ft 6 kts 189°
2026-04-30 20:58 39.85152 4.21875 280 ft 6 kts 195°
2026-04-30 20:58 39.85127 4.21837 281 ft 6 kts 256°
2026-04-30 20:58 39.85129 4.21798 282 ft 2 kts 278°
2026-04-30 20:58 39.85130 4.21791 287 ft 0 kts 278°
2026-04-30 21:02 39.85134 4.21758 283 ft 8 kts 279°
2026-04-30 21:02 39.85144 4.21668 287 ft 7 kts 277°
2026-04-30 21:02 39.85161 4.21640 285 ft 4 kts 349°
2026-04-30 21:03 39.85172 4.21642 285 ft 0 kts
2026-04-30 21:03 39.85182 4.21643 285 ft 5 kts
2026-04-30 21:04 39.85425 4.21693 286 ft 73 kts
2026-04-30 21:04 39.86175 4.21848 303 ft 140 kts
2026-04-30 21:04 39.88340 4.22287 1611 ft 164 kts 13°
2026-04-30 21:05 39.89531 4.22539 2044 ft 185 kts 13°
2026-04-30 21:05 39.90880 4.22824 2321 ft 207 kts 13°
2026-04-30 21:05 39.92335 4.23125 2763 ft 216 kts 12°
2026-04-30 21:05 39.93902 4.23452 2923 ft 243 kts 12°
2026-04-30 21:06 39.95639 4.23813 3345 ft 259 kts 11°
2026-04-30 21:06 39.97458 4.24189 3932 ft 266 kts 11°
2026-04-30 21:06 39.99323 4.24237 4549 ft 276 kts 346°
2026-04-30 21:06 40.00950 4.22968 5209 ft 281 kts 311°
2026-04-30 21:07 40.01769 4.20710 5918 ft 280 kts 276°
2026-04-30 21:07 40.02000 4.18183 6687 ft 280 kts 287°
2026-04-30 21:07 40.02970 4.16027 7442 ft 279 kts 308°
2026-04-30 21:07 40.04204 4.14026 8219 ft 281 kts 307°
2026-04-30 21:08 40.05400 4.12023 8979 ft 282 kts 306°
2026-04-30 21:08 40.06574 4.09991 9759 ft 284 kts 305°
2026-04-30 21:08 40.07762 4.07881 10453 ft 289 kts 304°
2026-04-30 21:08 40.08981 4.05670 10660 ft 312 kts 304°
2026-04-30 21:09 40.10277 4.03286 11128 ft 323 kts 304°
2026-04-30 21:09 40.11572 4.00885 11827 ft 327 kts 303°
2026-04-30 21:09 40.12885 3.98434 12616 ft 328 kts 303°
2026-04-30 21:09 40.14186 3.95993 13414 ft 330 kts 303°
2026-04-30 21:10 40.15500 3.93519 14173 ft 333 kts 303°
2026-04-30 21:10 40.16835 3.91000 14916 ft 336 kts 303°
2026-04-30 21:10 40.18167 3.88482 15652 ft 338 kts 303°
2026-04-30 21:10 40.19506 3.85948 16388 ft 341 kts 302°
2026-04-30 21:11 40.20849 3.83403 17111 ft 344 kts 302°
2026-04-30 21:11 40.22220 3.80803 17835 ft 347 kts 302°
2026-04-30 21:11 40.23595 3.78194 18524 ft 351 kts 302°
2026-04-30 21:11 40.24979 3.75563 19135 ft 354 kts 302°
2026-04-30 21:12 40.26392 3.72877 19754 ft 357 kts 302°
2026-04-30 21:12 40.27802 3.70194 20357 ft 360 kts 302°
2026-04-30 21:12 40.29220 3.67492 20948 ft 363 kts 302°
2026-04-30 21:12 40.30665 3.64739 21539 ft 367 kts 302°
2026-04-30 21:13 40.32107 3.61987 22108 ft 370 kts 302°
2026-04-30 21:13 40.33581 3.59172 22674 ft 373 kts 302°
2026-04-30 21:13 40.35048 3.56368 23240 ft 376 kts 302°
2026-04-30 21:13 40.36530 3.53532 23775 ft 380 kts 302°
2026-04-30 21:14 40.38025 3.50670 24239 ft 382 kts 302°
2026-04-30 21:14 40.39527 3.47792 24718 ft 385 kts 302°
2026-04-30 21:14 40.41036 3.44897 25188 ft 387 kts 302°
2026-04-30 21:14 40.42641 3.42014 25641 ft 391 kts 309°
2026-04-30 21:15 40.44616 3.39545 26070 ft 397 kts 318°
2026-04-30 21:15 40.46907 3.37487 26510 ft 404 kts 328°
2026-04-30 21:15 40.49460 3.35902 26941 ft 408 kts 332°
2026-04-30 21:15 40.52070 3.34422 27357 ft 411 kts 333°
2026-04-30 21:16 40.54747 3.32934 27764 ft 414 kts 333°
2026-04-30 21:16 40.57397 3.31460 28164 ft 417 kts 333°
2026-04-30 21:16 40.60070 3.29961 28558 ft 420 kts 333°
2026-04-30 21:16 40.62758 3.28441 28944 ft 422 kts 332°
2026-04-30 21:17 40.65451 3.26906 29315 ft 425 kts 332°
2026-04-30 21:17 40.68161 3.25354 29697 ft 427 kts 332°
2026-04-30 21:17 40.70914 3.23772 30055 ft 429 kts 332°
2026-04-30 21:17 40.73627 3.22210 30372 ft 432 kts 332°
2026-04-30 21:18 40.76416 3.20602 30676 ft 434 kts 332°
2026-04-30 21:18 40.79180 3.19007 30973 ft 436 kts 332°
2026-04-30 21:18 40.81965 3.17398 31265 ft 437 kts 332°
2026-04-30 21:18 40.84750 3.15788 31584 ft 438 kts 332°
2026-04-30 21:19 40.87529 3.14181 31977 ft 437 kts 332°
2026-04-30 21:19 40.90307 3.12575 32394 ft 435 kts 332°
2026-04-30 21:19 40.93098 3.10958 32791 ft 434 kts 332°
2026-04-30 21:19 40.95856 3.09359 33151 ft 434 kts 332°
2026-04-30 21:20 40.98608 3.07761 33501 ft 433 kts 332°
2026-04-30 21:20 41.01364 3.06159 33874 ft 432 kts 332°
2026-04-30 21:20 41.04136 3.04546 34217 ft 432 kts 332°
2026-04-30 21:20 41.06854 3.02963 34505 ft 431 kts 332°
2026-04-30 21:21 41.09622 3.01350 34811 ft 431 kts 332°
2026-04-30 21:21 41.12356 2.99755 35096 ft 430 kts 332°
2026-04-30 21:21 41.17823 2.96561 35675 ft 429 kts 332°
2026-04-30 21:22 41.20527 2.94980 35963 ft 428 kts 332°
2026-04-30 21:22 41.28655 2.90216 36801 ft 425 kts 332°
2026-04-30 21:23 41.31379 2.88617 37061 ft 424 kts 332°
2026-04-30 21:23 41.34064 2.87039 37309 ft 424 kts 332°
2026-04-30 21:23 41.39455 2.83867 37813 ft 422 kts 332°
2026-04-30 21:24 41.42123 2.82295 38058 ft 422 kts 332°
2026-04-30 21:24 41.44835 2.80695 38156 ft 424 kts 332°
2026-04-30 21:24 41.50221 2.77512 38157 ft 426 kts 332°
2026-04-30 21:25 41.58287 2.72741 38166 ft 418 kts 332°
2026-04-30 21:26 41.66202 2.68043 38164 ft 415 kts 332°
2026-04-30 21:27 41.74111 2.63335 38189 ft 414 kts 332°
2026-04-30 21:27 41.79356 2.60205 38177 ft 415 kts 332°
2026-04-30 21:28 41.87287 2.55463 38177 ft 417 kts 332°
2026-04-30 21:29 41.95248 2.50690 38180 ft 419 kts 332°
2026-04-30 21:30 42.08621 2.42644 38192 ft 422 kts 332°
2026-04-30 21:31 42.21984 2.34567 38189 ft 420 kts 332°
2026-04-30 21:32 42.29961 2.29727 38192 ft 419 kts 332°
2026-04-30 21:32 42.35297 2.26481 38194 ft 417 kts 332°
2026-04-30 21:33 42.43219 2.21652 38200 ft 416 kts 331°
2026-04-30 21:34 42.48430 2.18229 38205 ft 414 kts 329°
2026-04-30 21:34 42.56137 2.12892 38200 ft 413 kts 328°
2026-04-30 21:35 42.61235 2.09378 38191 ft 413 kts 329°
2026-04-30 21:35 42.66367 2.05855 38205 ft 412 kts 329°
2026-04-30 21:36 42.70628 2.02930 38196 ft 413 kts 329°
2026-04-30 21:37 42.80898 1.95866 38187 ft 413 kts 329°
2026-04-30 21:37 42.86021 1.92331 38190 ft 413 kts 328°
2026-04-30 21:38 42.91150 1.88786 38182 ft 413 kts 328°
2026-04-30 21:38 42.96287 1.85228 38191 ft 413 kts 328°
2026-04-30 21:39 43.01420 1.81667 38188 ft 414 kts 328°
2026-04-30 21:39 43.06549 1.78101 38187 ft 415 kts 328°
2026-04-30 21:40 43.11696 1.74516 38187 ft 415 kts 328°
2026-04-30 21:40 43.16864 1.70910 38178 ft 416 kts 328°
2026-04-30 21:41 43.22020 1.67305 38182 ft 416 kts 328°
2026-04-30 21:41 43.27189 1.63685 38181 ft 416 kts 328°
2026-04-30 21:42 43.32338 1.60071 38180 ft 416 kts 328°
2026-04-30 21:42 43.37481 1.56455 38178 ft 416 kts 328°
2026-04-30 21:43 43.42638 1.52822 38182 ft 416 kts 328°
2026-04-30 21:43 43.47811 1.49170 38188 ft 416 kts 328°
2026-04-30 21:44 43.50722 1.47112 38182 ft 416 kts 328°
2026-04-30 21:44 43.55853 1.43480 38184 ft 416 kts 328°
2026-04-30 21:45 43.60979 1.39844 38184 ft 415 kts 328°
2026-04-30 21:45 43.66176 1.36150 38187 ft 414 kts 328°
2026-04-30 21:46 43.71336 1.32475 38185 ft 414 kts 328°
2026-04-30 21:46 43.76451 1.28826 38187 ft 413 kts 328°
2026-04-30 21:47 43.81574 1.25163 38183 ft 413 kts 328°
2026-04-30 21:47 43.86662 1.21518 38190 ft 413 kts 328°
2026-04-30 21:48 43.91761 1.17859 38181 ft 413 kts 328°
2026-04-30 21:48 43.96868 1.14186 38182 ft 414 kts 328°
2026-04-30 21:49 44.01965 1.10513 38184 ft 415 kts 328°
2026-04-30 21:49 44.07084 1.06817 38181 ft 416 kts 328°
2026-04-30 21:50 44.12242 1.03086 38181 ft 417 kts 328°
2026-04-30 21:50 44.17383 0.99360 38182 ft 418 kts 328°
2026-04-30 21:51 44.22504 0.95640 38181 ft 419 kts 328°
2026-04-30 21:51 44.27688 0.91869 38179 ft 420 kts 328°
2026-04-30 21:52 44.32883 0.88122 38180 ft 421 kts 329°
2026-04-30 21:52 44.38124 0.84432 38176 ft 421 kts 329°
2026-04-30 21:53 44.43331 0.80768 38179 ft 421 kts 329°
2026-04-30 21:53 44.48587 0.77050 38178 ft 422 kts 329°
2026-04-30 21:54 44.53828 0.73330 38178 ft 422 kts 330°
2026-04-30 21:54 44.59064 0.69603 38187 ft 422 kts 330°
2026-04-30 21:55 44.64296 0.65871 38185 ft 422 kts 330°
2026-04-30 21:55 44.69536 0.62126 38188 ft 423 kts 330°
2026-04-30 21:56 44.74777 0.58372 38185 ft 423 kts 330°
2026-04-30 21:56 44.80007 0.54620 38187 ft 423 kts 330°
2026-04-30 21:57 44.85266 0.50838 38186 ft 423 kts 330°
2026-04-30 21:57 44.90482 0.47080 38189 ft 424 kts 330°
2026-04-30 21:58 44.95743 0.43280 38187 ft 424 kts 330°
2026-04-30 21:58 45.01003 0.39475 38189 ft 425 kts 330°
2026-04-30 21:59 45.06247 0.35673 38192 ft 425 kts 330°
2026-04-30 22:00 45.14144 0.29932 38189 ft 425 kts 330°
2026-04-30 22:00 45.22078 0.24146 38192 ft 426 kts 330°
2026-04-30 22:01 45.27347 0.20294 38192 ft 426 kts 330°
2026-04-30 22:01 45.32631 0.16422 38188 ft 427 kts 330°
2026-04-30 22:02 45.37890 0.12560 38190 ft 427 kts 330°
2026-04-30 22:02 45.43164 0.08680 38191 ft 427 kts 330°
2026-04-30 22:03 45.48454 0.04779 38192 ft 427 kts 330°
2026-04-30 22:03 45.53731 0.00880 38184 ft 427 kts 331°
2026-04-30 22:04 45.59043 -0.03054 38185 ft 428 kts 331°
2026-04-30 22:05 45.66972 -0.08942 38191 ft 428 kts 331°
2026-04-30 22:05 45.72265 -0.12882 38191 ft 429 kts 331°
2026-04-30 22:06 45.77554 -0.16828 38190 ft 430 kts 331°
2026-04-30 22:06 45.85511 -0.22780 38185 ft 431 kts 331°
2026-04-30 22:07 45.90829 -0.26770 38183 ft 431 kts 331°
2026-04-30 22:07 45.96146 -0.30768 38191 ft 432 kts 331°
2026-04-30 22:08 46.01481 -0.34787 38177 ft 432 kts 331°
2026-04-30 22:08 46.06793 -0.38798 38178 ft 433 kts 331°
2026-04-30 22:09 46.12137 -0.42842 38175 ft 433 kts 331°
2026-04-30 22:09 46.17455 -0.46875 38174 ft 433 kts 331°
2026-04-30 22:10 46.22824 -0.50956 38175 ft 433 kts 331°
2026-04-30 22:10 46.28124 -0.54994 38165 ft 433 kts 331°
2026-04-30 22:11 46.36122 -0.61104 38169 ft 433 kts 331°
2026-04-30 22:12 46.41497 -0.65075 38154 ft 433 kts 338°
2026-04-30 22:12 46.47326 -0.67079 38166 ft 434 kts 353°
2026-04-30 22:13 46.53339 -0.67836 38162 ft 434 kts 354°
2026-04-30 22:13 46.58391 -0.68435 38178 ft 434 kts 354°
2026-04-30 22:14 46.64401 -0.69195 38165 ft 434 kts 354°
2026-04-30 22:14 46.70398 -0.69990 38163 ft 435 kts 354°
2026-04-30 22:15 46.76442 -0.70806 38163 ft 435 kts 354°
2026-04-30 22:15 46.82439 -0.71620 38170 ft 435 kts 354°
2026-04-30 22:16 46.88484 -0.72441 38167 ft 436 kts 354°
2026-04-30 22:17 47.00680 -0.74102 38182 ft 447 kts 354°
2026-04-30 22:17 47.10070 -0.75386 38173 ft 457 kts 354°
2026-04-30 22:18 47.19563 -0.76687 38168 ft 460 kts 354°
2026-04-30 22:19 47.29179 -0.78011 38160 ft 460 kts 354°
2026-04-30 22:20 47.38691 -0.79325 38159 ft 458 kts 354°
2026-04-30 22:20 47.48224 -0.80647 38160 ft 456 kts 354°
2026-04-30 22:21 47.54483 -0.81518 38158 ft 454 kts 354°
2026-04-30 22:21 47.60770 -0.82394 38164 ft 453 kts 354°
2026-04-30 22:22 47.67047 -0.83272 38156 ft 452 kts 354°
2026-04-30 22:22 47.73317 -0.84150 38158 ft 452 kts 354°
2026-04-30 22:23 47.79550 -0.85026 38160 ft 453 kts 354°
2026-04-30 22:23 47.85880 -0.85917 38162 ft 454 kts 354°
2026-04-30 22:24 47.92170 -0.86805 38161 ft 456 kts 354°
2026-04-30 22:24 47.98494 -0.87699 38164 ft 457 kts 354°
2026-04-30 22:25 48.04833 -0.88598 38161 ft 459 kts 354°
2026-04-30 22:25 48.11179 -0.89501 38160 ft 461 kts 354°
2026-04-30 22:26 48.20800 -0.90873 38158 ft 462 kts 354°
2026-04-30 22:27 48.27201 -0.91788 38157 ft 463 kts 354°
2026-04-30 22:27 48.36811 -0.93168 38157 ft 463 kts 354°
2026-04-30 22:28 48.46409 -0.94550 38153 ft 462 kts 354°
2026-04-30 22:29 48.59207 -0.96402 38150 ft 461 kts 354°
2026-04-30 22:31 48.81556 -0.99659 38147 ft 460 kts 354°
2026-04-30 22:32 48.97508 -1.02001 38149 ft 460 kts 354°
2026-04-30 22:33 49.13455 -1.04358 38149 ft 461 kts 354°
2026-04-30 22:35 49.29453 -1.06738 38137 ft 462 kts 355°
2026-04-30 22:36 49.45510 -1.09143 38134 ft 463 kts 355°
2026-04-30 22:37 49.58357 -1.10841 38122 ft 463 kts
2026-04-30 22:38 49.71147 -1.09033 38137 ft 463 kts
2026-04-30 22:39 49.80781 -1.07650 38141 ft 464 kts
2026-04-30 22:40 50.00134 -1.05053 38140 ft 465 kts
2026-04-30 22:41 50.16322 -1.02858 38138 ft 470 kts
2026-04-30 22:43 50.35866 -1.00187 38143 ft 468 kts
2026-04-30 22:44 50.48803 -0.98411 38147 ft 467 kts
2026-04-30 22:45 50.68182 -0.95727 38160 ft 465 kts
2026-04-30 22:47 50.87267 -0.91319 38174 ft 460 kts 20°
2026-04-30 22:48 50.99400 -0.84831 38176 ft 460 kts 20°
2026-04-30 22:49 51.17563 -0.75372 38185 ft 460 kts 18°
2026-04-30 22:50 51.30326 -0.75579 38194 ft 467 kts 348°
2026-04-30 22:51 51.36656 -0.78006 38186 ft 468 kts 348°
2026-04-30 22:52 51.45099 -0.81255 38186 ft 469 kts 348°
2026-04-30 22:53 51.57848 -0.85989 38185 ft 470 kts 348°
2026-04-30 22:53 51.67412 -0.89531 38188 ft 471 kts 348°
2026-04-30 22:55 51.83351 -0.95480 38186 ft 472 kts 349°
2026-04-30 22:56 51.96185 -1.00301 38196 ft 473 kts 349°
2026-04-30 22:57 52.12196 -1.06357 38217 ft 474 kts 349°
2026-04-30 22:58 52.25056 -1.11253 38227 ft 475 kts 349°
2026-04-30 22:59 52.44338 -1.18649 38159 ft 475 kts 349°